Lima, OH

9:00 PM EDT on October 16, 2017 (GMT -0400)
Lima Allen County

Weather History for KAOH - May, 2014

Change the Weather History Date:

Tuesday, May 20, 2014

  Actual Average (KFDY) Record (KFDY)
Temperature  
Mean Temperature 68 °F -  
Max Temperature 81 °F 72 °F 90 °F (1977)
Min Temperature 55 °F 51 °F 34 °F (1954)
Cooling Degree Days 2    
Growing Degree Days 18 (Base 50)    
Moisture  
Dew Point 53 °F    
Average Humidity 57    
Maximum Humidity 73    
Minimum Humidity 45    
Precipitation  
Precipitation 0.00 in - - ()
Sea Level Pressure  
Sea Level Pressure 30.01 in    
Wind  
Wind Speed 11 mph (South)    
Max Wind Speed 22 mph    
Max Gust Speed 29 mph    
Visibility 10 miles    
Events      
Averages and records for this station are not official NWS values.
T = Trace of Precipitation, MM = Missing Value Source: NWS Daily Summary

Daily Weather History Graph

Daily Weather History Graph

Search for Another Location

Airport or City:

Trip Planner

Search our weather history database for the weather conditions in past years. The results will help you decide how hot, cold, wet, or windy it might be!

Date:

Astronomy

May. 20, 2014 Rise Set
Actual Time 6:14 AM EDT 8:51 PM EDT
Civil Twilight 5:43 AM EDT 9:22 PM EDT
Nautical Twilight 5:03 AM EDT 10:02 PM EDT
Astronomical Twilight 4:19 AM EDT 10:47 PM EDT
Moon 1:19 AM EDT (5/20) 12:21 PM EDT (5/20)
Length of Visible Light 15h 39m
Length of Day
14h 36m
Waning Gibbous, 60% of the Moon is Illuminated
May 20
Waning Gibbous
May 21
Last Quarter
May 28
New
Jun 5
First Quarter
Jun 13
Full

Hourly Weather History & Observations

Time (EDT) Temp. Heat Index Dew Point Humidity Pressure Visibility Wind Dir Wind Speed Gust Speed Precip Events Conditions
12:53 AM 59.0 °F - 43.0 °F 55% 30.15 in 10.0 mi ESE 6.9 mph - N/A   Overcast
1:53 AM 57.9 °F - 43.0 °F 58% 30.15 in 10.0 mi ESE 5.8 mph - 0.00 in   Partly Cloudy
2:53 AM 55.9 °F - 45.0 °F 67% 30.16 in 10.0 mi East 6.9 mph - N/A   Overcast
3:53 AM 57.9 °F - 43.0 °F 58% 30.13 in 10.0 mi ESE 10.4 mph - N/A   Overcast
5:53 AM 59.0 °F - 41.0 °F 51% 30.08 in 10.0 mi SSE 9.2 mph - N/A   Overcast
6:53 AM 61.0 °F - 39.9 °F 46% 30.07 in 10.0 mi SSE 18.4 mph 24.2 mph N/A   Overcast
7:53 AM 61.0 °F - 39.9 °F 46% 30.06 in 10.0 mi SSE 17.3 mph - N/A   Overcast
8:53 AM 63.0 °F - 41.0 °F 45% 30.03 in 10.0 mi South 19.6 mph 28.8 mph 0.00 in   Mostly Cloudy
9:53 AM 66.9 °F - 45.0 °F 45% 30.02 in 10.0 mi South 21.9 mph 28.8 mph N/A   Scattered Clouds
10:53 AM 68.0 °F - 52.0 °F 56% 30.01 in 10.0 mi SSW 13.8 mph 24.2 mph N/A   Overcast
11:53 AM 70.0 °F - 55.0 °F 59% 30.00 in 10.0 mi SSW 12.7 mph - N/A   Overcast
12:53 PM 72.0 °F - 57.9 °F 61% 29.98 in 10.0 mi SW 15.0 mph - N/A   Overcast
1:53 PM 73.9 °F - 60.1 °F 62% 29.96 in 10.0 mi SSW 10.4 mph - N/A   Mostly Cloudy
2:53 PM 78.1 °F - 61.0 °F 56% 29.95 in 10.0 mi SW 12.7 mph - N/A   Mostly Cloudy
3:53 PM 79.0 °F - 61.0 °F 54% 29.93 in 10.0 mi SW 17.3 mph 23.0 mph N/A   Partly Cloudy
5:53 PM 80.1 °F 81.1 °F 61.0 °F 52% 29.93 in 10.0 mi WSW 13.8 mph 23.0 mph N/A   Mostly Cloudy
6:53 PM 80.1 °F 81.1 °F 61.0 °F 52% 29.93 in 10.0 mi WSW 13.8 mph - N/A   Partly Cloudy
7:53 PM 78.1 °F - 61.0 °F 56% 29.93 in 10.0 mi SW 11.5 mph - N/A   Clear
8:53 PM 73.9 °F - 62.1 °F 66% 29.93 in 10.0 mi SSW 8.1 mph - N/A   Clear
9:53 PM 72.0 °F - 62.1 °F 71% 29.93 in 10.0 mi South 8.1 mph - N/A   Clear
10:53 PM 71.1 °F - 62.1 °F 73% 29.94 in 10.0 mi South 8.1 mph - N/A   Clear
11:53 PM 71.1 °F - 61.0 °F 70% 29.92 in 10.0 mi South 6.9 mph - N/A   Clear